This is the latest recevied weather packets stored in our database for station/object JE0GNV-13. If no packets are shown the sender has not sent any weather packets the latest 10 day(s).
| Time | Temp. | Humidity | Pressure | Rain* | Wind** | Luminosity | Snow |
|---|---|---|---|---|---|---|---|
| 1777393201 | 15.56° C | 65% | 1008.7 hPa | 0 mm | - | - | - |
| 1777392601 | 15.56° C | 64% | 1008.8 hPa | 0 mm | - | - | - |
| 1777392001 | 15.56° C | 67% | 1008.8 hPa | 0 mm | - | - | - |
| 1777391401 | 15.56° C | 66% | 1008.7 hPa | 0 mm | - | - | - |
| 1777390801 | 15.56° C | 66% | 1008.7 hPa | 0 mm | - | - | - |
| 1777390200 | 15.56° C | 66% | 1008.7 hPa | 0 mm | - | - | - |
| 1777389602 | 15.56° C | 66% | 1008.8 hPa | 0 mm | - | - | - |
| 1777389001 | 15.56° C | 65% | 1008.8 hPa | 0 mm | - | - | - |
| 1777388401 | 15.56° C | 65% | 1009 hPa | 0 mm | - | - | - |
| 1777387801 | 15.56° C | 66% | 1008.9 hPa | 0 mm | - | - | - |
| 1777387201 | 15.56° C | 64% | 1008.9 hPa | 0 mm | - | - | - |
| 1777386601 | 15.56° C | 65% | 1009.2 hPa | 0 mm | - | - | - |
| 1777386001 | 16.11° C | 64% | 1009 hPa | 0 mm | - | - | - |
| 1777385402 | 16.11° C | 63% | 1009 hPa | 0 mm | - | - | - |
| 1777384800 | 16.11° C | 60% | 1009.3 hPa | 0 mm | - | - | - |
| 1777384202 | 15.56° C | 64% | 1009.2 hPa | 0 mm | - | - | - |
| 1777383602 | 15.56° C | 65% | 1009.2 hPa | 0 mm | - | - | - |
| 1777383001 | 15.56° C | 66% | 1009.1 hPa | 0 mm | - | - | - |
| 1777382401 | 15.56° C | 66% | 1009.2 hPa | 0 mm | - | - | - |
| 1777381801 | 15.56° C | 65% | 1009.2 hPa | 0 mm | - | - | - |
| 1777381201 | 15.56° C | 65% | 1009.5 hPa | 0 mm | - | - | - |
| 1777380600 | 15.56° C | 66% | 1009.4 hPa | 0 mm | - | - | - |
| 1777380001 | 15.56° C | 65% | 1009.4 hPa | 0 mm | - | - | - |
| 1777379401 | 15.56° C | 64% | 1009.4 hPa | 0 mm | - | - | - |
| 1777378802 | 16.11° C | 63% | 1009.2 hPa | 0 mm | - | - | - |
* Rain latest hour (hover to see other rain measurements)
** Current wind speed in m/s (hover to see current wind gust speed)